Flag for Canada Weather past 2 weeks in Windsor, Ontario, Canada

Now
7 °F

Passing clouds.


Feels Like: -6 °F
Forecast: -9 / 9 °F
Wind: 8 mph from Southwest

Location: Windsor Weather Station

Current Time: Feb 27, 2015 at 10:40:38 AM

Latest Report: Feb 27, 2015 at 10:00 AM


Visibility: 15 mi

Pressure: 30.58 "Hg

Humidity: 72%

Dew point: 0 °F

Location of WindsorLocation

Historic Weather in Windsor — Graph

°F

Windsor temperature yesterday

Maximum temperature yesterday: 14 °F (at 2:00 PM)
Minimum temperature yesterday: 7 °F (at 12:00 AM)
Average temperature yesterday: 10 °F

Past Weeks' High & Low Weather Summary

 TemperatureHumidityPressure
High28 °F (Feb 22, 12:00 PM)93% (Feb 14, 3:00 AM)30.71 "Hg (Feb 14, 3:00 AM)
Low-15 °F (Feb 16, 6:00 AM)35% (Feb 19, 3:00 PM)29.64 "Hg (Feb 14, 9:00 AM)
Average8 °F67%30.17 "Hg
* Reported Feb 12 9:00 AM — Feb 27 9:00 AM, Windsor, Weather by CustomWeather, © 2015

Note: Actual official high and low records may vary slightly from our data, if they occured in-between our weather recording intervals... More about our weather records

Advertising

Windsor weather history for previous 24 hours

 ConditionsComfort  
Time TempWeatherWind HumidityBarometerVisibility
9:00 AM
Fri, Feb 27
-2 °FPassing clouds.3 mph77%30.57 "Hg15 mi
8:00 AM-2 °FSunny.7 mph84%30.54 "Hg15 mi
7:00 AM-4 °FPassing clouds.6 mph84%30.52 "Hg8 mi
6:00 AM-2 °FClear.6 mph77%30.49 "Hg15 mi
5:00 AM-4 °FPassing clouds.No wind84%30.47 "Hg15 mi
4:00 AM1 °FPassing clouds.No wind78%30.45 "Hg15 mi
3:00 AM1 °FPassing clouds.3 mph71%30.43 "Hg15 mi
2:00 AM3 °FPassing clouds.3 mph72%30.42 "Hg15 mi
1:00 AM5 °FClear.5 mph66%30.40 "Hg15 mi
12:00 AM7 °FClear.6 mph61%30.39 "Hg15 mi
11:00 PM
Thu, Feb 26
7 °FPassing clouds.5 mph61%30.38 "Hg15 mi
10:00 PM9 °FOvercast.6 mph61%30.36 "Hg15 mi
9:00 PM10 °FOvercast.9 mph56%30.34 "Hg15 mi
8:00 PM10 °FPassing clouds.9 mph61%30.32 "Hg12 mi
7:00 PM12 °FPartly cloudy.9 mph62%30.28 "Hg12 mi
6:00 PM12 °FLight snow. Broken clouds.9 mph62%30.26 "Hg12 mi
5:00 PM14 °FLight snow. Overcast.14 mph62%30.24 "Hg10 mi
4:00 PM14 °FLight snow. Partly sunny.10 mph67%30.21 "Hg7 mi
3:00 PM14 °FLight snow. Overcast.9 mph67%30.20 "Hg5 mi
2:00 PM14 °FLight snow. Partly sunny.9 mph73%30.19 "Hg6 mi
1:00 PM12 °FLight snow. Partly sunny.9 mph67%30.19 "Hg6 mi
12:00 PM12 °FLight snow. Mostly cloudy.8 mph73%30.20 "Hg2 mi
11:00 AM10 °FLight snow. Overcast.9 mph79%30.20 "Hg2 mi
10:00 AM9 °FLight snow. Overcast.10 mph78%30.19 "Hg1 mi
Weather by CustomWeather, © 2015

See weather overviewHow to use our weather pages